Flag for Maldives Weather past 2 weeks in Male, Maldives

Now
86 °F

Passing clouds.


Feels Like: 99 °F
Forecast: 84 / 90 °F
Wind: 8 mph from Southwest

Location: Male Airport


UV Index: 10 (Very high)

Visibility: N/A


Pressure: 29.86 "Hg

Humidity: 79%

Dew point: 79 °F

Location of MaleLocation

Historic Weather in Male

°F

Male temperature yesterday

Maximum temperature yesterday: 90 °F (at 1:00 PM)
Minimum temperature yesterday: 84 °F (at 1:00 AM)
Average temperature yesterday: 86 °F

Past Weeks' High & Low Weather Summary

 TemperatureHumidityPressure
High90 °F (Apr 4, 2:00 PM)94% (Apr 7, 5:00 AM)29.98 "Hg (Apr 7, 5:00 AM)
Low79 °F (Apr 7, 5:00 AM)40% (Apr 7, 12:00 PM)29.74 "Hg (Apr 2, 3:00 PM)
Average85 °F78%29.86 "Hg
* Reported Apr 2 8:00 AM — Apr 17 8:00 AM, Male, Weather by CustomWeather, © 2014

Note: Actual official high and low records may vary slightly from our data, if they occured in-between our weather recording intervals... More about our weather records

Advertising

Historic Weather Conditions — Data for Previous 24 hours

 ConditionsComfort  
Time TempWeatherWind HumidityBarometerVisibility
8:00 AM
Apr 17
86 °FPassing clouds.8 mph79%29.86 "HgN/A
7:00 AM84 °FPassing clouds.9 mph84%29.83 "HgN/A
6:00 AM84 °FPassing clouds.9 mph84%29.80 "HgN/A
5:00 AM84 °FPassing clouds.9 mph79%29.80 "HgN/A
4:00 AM84 °FPassing clouds.9 mph79%29.80 "HgN/A
3:00 AM84 °FPassing clouds.9 mph84%29.80 "HgN/A
2:00 AM84 °FPassing clouds.8 mph84%29.83 "HgN/A
1:00 AM84 °FPassing clouds.7 mph84%29.83 "HgN/A
12:00 AM84 °FPassing clouds.6 mph84%29.86 "HgN/A
11:00 PM
Apr 16
84 °FPassing clouds.7 mph84%29.89 "HgN/A
10:00 PM84 °FPassing clouds.6 mph84%29.89 "HgN/A
9:00 PM84 °FPassing clouds.8 mph84%29.86 "HgN/A
8:00 PM84 °FPassing clouds.7 mph84%29.86 "HgN/A
7:00 PM86 °FPassing clouds.8 mph79%29.83 "HgN/A
6:00 PM86 °FPassing clouds.9 mph79%29.83 "HgN/A
5:00 PM88 °FPassing clouds.7 mph75%29.80 "HgN/A
4:00 PM88 °FPassing clouds.8 mph79%29.80 "HgN/A
3:00 PM90 °FPassing clouds.9 mph75%29.83 "HgN/A
2:00 PM90 °FPassing clouds.8 mph75%29.89 "HgN/A
1:00 PM90 °FPassing clouds.7 mph75%29.86 "HgN/A
12:00 PM88 °FPassing clouds.8 mph75%29.89 "HgN/A
11:00 AM88 °FPassing clouds.7 mph79%29.92 "HgN/A
10:00 AM88 °FPassing clouds.8 mph79%29.92 "HgN/A
9:00 AM88 °FPassing clouds.7 mph75%29.92 "HgN/A
Weather by CustomWeather, © 2014

See weather overview